Theta_e
324 324 324 325 325 326 327 328 329 329 329 328 328 326 328 327 325 319 308 315 317 324 318 309 310 310 311 308 307 307 303 299 299 299 301 304 304 304 306 307 310 314 311 322 332
323 324 324 324 324 325 327 327 327 328 328 328 328 327 326 325 315 309 320 327 327 325 309 307 307 308 307 305 306 306 302 302 304 303 303 304 305 305 304 304 305 309 312 326 331
323 323 323 324 324 325 326 326 326 326 326 326 326 325 324 322 306 306 327 327 328 322 310 309 307 306 305 306 304 303 301 302 301 302 304 304 303 305 304 302 306 306 309 323 329
322 321 322 324 324 325 325 325 324 324 324 325 324 324 322 316 293 310 327 329 327 313 308 306 305 303 303 301 303 300 300 301 302 302 302 303 304 303 304 305 304 307 311 322 327
321 320 321 322 324 324 324 323 323 323 323 324 323 323 316 306 306 312 323 324 314 309 306 305 303 302 301 302 302 300 300 301 301 301 302 302 301 302 302 305 304 305 311 318 325
320 319 320 321 322 323 323 322 322 322 322 323 323 322 311 297 312 312 312 310 309 306 306 305 305 304 300 300 301 300 301 300 300 300 300 300 299 300 301 302 303 304 309 316 322
319 318 319 320 321 322 322 322 322 322 321 321 323 316 306 303 311 311 309 309 309 308 305 305 305 305 302 299 300 300 298 299 299 299 299 300 296 298 300 300 301 303 306 311 320
319 318 319 319 320 321 321 321 321 321 321 322 323 314 301 311 313 308 309 307 309 308 307 306 307 303 302 301 298 296 298 294 295 298 298 297 295 296 300 300 301 301 303 304 310
318 318 318 319 319 320 320 319 319 320 320 322 312 305 298 314 305 308 309 306 306 306 307 306 306 300 299 298 295 294 292 292 291 297 297 296 295 297 300 301 301 303 303 302 304
318 317 318 318 318 318 319 319 319 319 317 315 305 300 302 303 307 306 308 307 304 305 304 303 301 299 296 295 288 290 290 289 291 295 296 295 296 298 300 300 302 303 303 303 303
317 317 318 318 317 318 318 314 305 303 307 299 299 298 299 306 307 304 306 304 304 303 297 297 296 293 295 296 292 294 292 291 291 295 295 295 296 298 300 299 301 301 300 300 301
317 317 317 317 318 319 316 304 302 303 295 303 299 302 305 306 299 302 306 301 299 294 296 295 292 296 295 293 292 293 291 290 293 294 294 293 295 298 295 296 296 297 298 299 300
317 317 317 317 318 315 311 307 313 309 295 298 300 300 303 304 298 300 302 299 297 294 294 292 292 295 293 292 292 291 291 290 291 291 292 291 292 292 294 296 298 298 299 300 300
316 316 316 317 312 312 308 314 315 310 290 291 298 300 302 301 297 303 302 300 295 293 293 293 292 293 292 292 293 289 293 292 291 291 287 290 287 291 292 295 297 299 300 301 302
314 316 316 317 312 307 311 316 313 302 280 294 297 304 300 297 298 299 303 299 293 292 294 291 290 291 291 292 293 290 293 293 291 291 290 289 288 290 291 293 295 297 299 300 301
309 311 315 315 315 313 315 314 307 289 280 290 296 294 295 296 296 298 299 300 298 294 294 292 294 294 293 292 293 293 292 291 291 290 284 288 288 289 290 293 294 297 298 299 300
307 310 313 315 309 315 314 309 292 283 292 289 290 293 294 292 293 295 294 293 291 288 288 291 291 294 295 292 293 292 292 284 283 283 283 284 284 290 291 295 298 297 298 299 301
305 309 309 311 315 314 311 299 283 288 287 294 293 292 289 292 291 292 292 291 293 291 288 286 284 291 294 293 291 291 291 286 280 279 282 283 283 289 292 294 298 299 298 299 300
304 303 306 305 310 313 303 287 286 288 293 292 292 288 288 291 292 292 292 291 293 293 288 286 285 292 292 293 294 290 287 290 283 277 283 286 288 291 292 294 296 297 298 299 300
298 300 300 304 306 308 298 289 291 292 296 295 288 291 286 289 289 290 289 293 292 293 294 290 284 289 291 293 293 291 292 286 286 280 280 282 284 289 289 292 295 295 297 298 299
296 294 298 303 305 301 289 291 293 297 297 294 291 290 290 288 290 288 289 291 294 292 294 292 291 287 290 289 289 288 287 287 288 286 283 280 285 292 293 295 295 297 298 298 298
292 286 298 301 293 296 291 295 295 296 298 297 296 293 290 290 289 289 288 291 294 294 290 293 290 286 287 290 291 290 289 289 286 281 282 283 287 292 296 298 297 296 296 299 299
287 288 297 300 284 287 291 294 296 295 295 295 294 295 294 291 287 290 291 295 295 293 291 293 289 283 284 288 289 287 288 289 288 287 283 284 287 292 296 295 296 296 297 297 297
288 284 289 291 287 287 289 290 291 297 296 296 295 296 293 291 294 289 290 294 295 294 296 296 288 288 283 286 290 286 286 288 289 286 286 286 287 290 292 293 295 296 297 297 297
288 284 286 285 286 286 289 290 290 291 296 297 293 294 293 289 291 290 292 292 294 295 294 293 287 288 288 289 289 289 288 287 287 289 286 288 287 291 293 294 295 297 296 294 294
286 285 287 283 284 288 286 286 288 292 293 292 292 294 294 291 293 289 292 292 292 293 293 293 286 287 284 287 288 286 289 289 289 290 290 289 288 295 297 297 294 295 294 294 293
290 291 288 284 283 286 287 287 287 291 292 295 295 294 292 294 296 297 297 296 295 293 291 291 287 285 284 286 286 284 288 288 289 291 291 287 292 293 294 293 295 295 294 293 292
Wind_Speed
15 14 14 13 12 11 12 11 11 11 11 11 13 13 11 8 10 6 9 9 6 8 4 4 3 4 3 3 2 2 4 6 7 8 7 8 6 3 1 5 2 3 2 4 16
14 13 14 11 12 11 11 11 11 12 11 8 11 12 10 12 7 6 4 10 11 10 7 10 8 7 5 3 3 3 3 6 4 5 7 11 5 8 5 4 4 5 4 6 14
15 14 13 12 13 12 11 11 11 11 11 11 11 10 11 12 5 9 8 19 12 10 3 3 4 3 4 4 3 3 3 5 4 3 7 11 7 5 5 4 5 7 11 12 14
16 14 12 13 13 12 12 10 10 10 10 11 11 11 9 4 9 2 4 16 13 9 8 6 5 6 4 8 3 5 3 2 3 4 6 10 10 6 6 2 3 2 6 14 16
17 13 13 12 13 13 12 12 11 10 10 9 11 13 6 2 7 5 6 9 9 9 12 10 9 5 7 7 6 3 5 4 4 3 5 7 4 2 6 4 3 3 6 12 15
17 15 14 12 13 13 12 12 12 10 10 9 11 11 2 11 3 7 8 6 7 5 9 8 9 3 6 5 3 4 6 7 2 3 3 3 3 2 2 2 5 4 6 9 12
19 17 14 14 12 12 12 11 12 10 9 10 11 5 3 10 3 6 8 4 6 6 8 4 5 1 7 7 5 8 6 4 3 1 2 1 3 6 3 1 1 6 5 5 10
19 18 15 14 12 11 12 9 9 10 9 8 9 3 6 1 5 6 6 4 4 3 3 5 6 8 2 9 5 4 3 6 2 1 1 4 5 1 2 4 5 3 5 6 7
18 19 16 15 12 11 11 9 8 7 7 9 5 4 5 3 4 4 4 8 6 4 5 4 3 4 4 10 5 1 7 7 3 1 1 4 3 3 1 2 5 2 1 2 5
20 19 17 15 13 12 11 10 7 8 5 3 1 4 5 5 5 5 1 7 4 9 7 1 4 5 5 8 13 10 6 3 5 5 2 4 9 4 2 4 5 4 3 4 6
21 20 17 15 13 14 13 9 8 5 5 5 7 1 4 2 2 2 2 5 5 7 7 1 7 14 17 9 2 9 7 6 2 3 3 6 8 8 3 5 7 5 5 4 5
21 20 18 15 14 13 7 6 5 6 7 3 4 2 2 2 5 4 3 6 8 14 6 6 13 7 10 9 6 9 8 5 3 2 2 2 9 6 4 3 4 8 4 4 4
20 19 16 16 14 9 8 4 3 3 5 3 3 4 4 3 3 9 5 4 7 9 10 10 2 13 7 7 10 2 8 6 4 4 3 2 6 3 4 5 4 5 3 4 5
18 20 18 17 10 10 7 3 4 1 4 4 5 3 4 5 3 1 1 3 3 11 8 3 3 11 11 9 8 6 4 7 11 6 3 2 2 3 2 5 6 5 6 6 8
12 14 21 15 9 8 5 8 5 1 5 8 3 0 2 3 7 3 2 3 8 8 7 6 10 10 8 7 6 4 7 7 4 5 1 3 5 4 5 4 4 6 8 10 9
7 9 11 4 1 2 7 9 2 4 9 7 6 8 8 2 2 3 3 4 3 5 6 5 1 3 3 5 1 13 10 8 4 3 4 4 5 5 7 6 7 7 9 10 10
9 4 7 3 4 7 7 5 5 8 5 9 7 8 15 7 5 6 14 10 8 9 9 3 2 2 4 11 5 3 14 4 4 5 4 2 4 3 5 6 13 14 11 8 8
8 5 2 2 2 8 4 6 8 8 7 4 6 11 13 11 1 5 13 13 4 4 7 11 8 10 6 5 10 13 6 6 8 6 4 2 7 2 2 4 9 9 9 9 8
10 2 3 3 4 2 8 12 13 7 11 10 10 14 8 5 5 9 16 15 13 11 8 9 4 2 2 2 5 7 7 4 8 2 2 5 3 4 5 7 11 11 11 10 9
2 2 3 5 5 3 9 12 8 3 10 10 8 10 16 14 9 12 15 9 8 10 2 7 6 3 2 2 2 5 11 4 1 6 5 5 5 6 14 17 16 14 13 10 9
3 3 3 5 2 5 15 10 3 2 3 9 7 8 9 11 10 11 17 4 7 10 2 7 4 3 2 7 11 6 6 2 2 2 5 5 6 3 22 23 21 16 13 12 10
2 2 2 5 7 6 14 11 5 6 3 3 3 6 10 12 11 8 12 3 7 13 12 3 6 6 10 3 4 2 5 10 6 7 2 1 3 2 15 20 18 16 13 11 10
2 2 5 2 4 8 2 7 6 7 5 5 3 2 3 8 6 5 6 2 4 10 16 9 4 5 3 1 1 6 6 6 3 3 8 7 4 3 13 16 15 17 14 12 11
2 2 2 2 1 2 7 11 10 1 4 3 4 3 7 6 3 10 5 1 3 4 2 5 3 10 14 10 8 9 8 8 10 5 7 10 5 10 15 17 16 15 15 14 12
2 1 3 3 3 2 1 7 17 11 2 4 1 5 9 6 5 6 6 5 2 1 2 4 8 6 1 2 3 6 15 15 16 22 13 18 12 20 22 22 20 16 14 13 12
2 2 1 2 0 5 3 3 9 16 12 9 5 9 4 9 10 11 11 7 6 4 5 0 4 3 3 0 4 2 8 18 23 20 17 9 13 10 19 12 14 17 16 15 13
1 1 1 1 2 4 6 4 2 5 3 6 11 8 7 7 11 9 7 8 8 10 7 7 7 4 6 4 0 5 17 16 14 16 18 19 17 9 18 18 19 19 17 15 13
Wind_Direction
189 191 195 195 184 180 190 186 181 178 193 178 180 225 215 209 202 180 228 235 212 211 145 144 154 133 141 149 131 105 211 183 165 168 133 148 170 132 47 141 181 168 351 73 139
183 188 186 189 183 180 184 185 180 175 187 179 181 197 198 208 222 242 210 254 232 182 150 176 171 161 175 142 108 208 222 182 166 146 144 157 182 148 183 150 186 180 120 138 155
175 177 185 186 185 180 181 183 170 173 173 173 180 203 192 211 56 263 202 215 215 187 163 189 117 199 184 149 129 168 201 154 164 140 152 148 159 151 173 195 206 214 171 166 177
172 177 189 185 185 180 178 171 166 166 173 170 178 180 178 251 178 291 248 177 189 176 139 151 166 202 162 144 149 171 77 100 134 156 145 156 127 167 211 71 69 196 170 171 185
165 171 200 184 175 173 176 174 170 162 169 172 181 157 178 153 249 171 163 162 168 161 167 176 180 182 156 137 144 133 138 92 97 133 101 129 125 127 216 197 210 79 178 189 191
166 171 191 175 171 170 168 185 171 162 168 174 174 154 184 217 137 161 154 162 181 153 175 174 200 192 100 134 183 105 128 119 121 110 83 159 141 224 142 61 208 200 187 196 203
167 168 180 173 163 160 163 181 167 166 165 182 167 163 220 226 159 162 166 189 182 184 167 176 158 238 133 120 111 132 112 120 68 57 87 281 210 220 98 264 107 191 199 208 213
169 164 169 161 162 157 157 167 157 161 159 186 160 177 238 137 141 155 167 140 169 120 125 129 132 100 50 121 79 120 126 174 102 236 37 255 224 161 29 202 177 192 208 214 219
164 157 161 160 160 162 155 156 157 156 156 171 153 218 229 138 164 175 186 159 134 85 72 114 75 95 148 146 131 202 184 203 176 188 125 244 267 81 331 65 154 153 236 252 237
156 154 160 157 160 158 148 151 158 131 130 179 279 208 177 195 157 146 177 146 134 133 123 104 93 137 133 182 193 176 165 178 194 164 185 198 245 199 253 281 279 299 292 275 265
152 158 152 157 160 162 142 130 145 143 210 201 177 260 128 108 114 110 188 120 128 161 166 124 184 190 179 178 136 152 146 155 137 82 203 237 265 265 304 282 287 300 316 307 316
151 151 151 156 164 166 170 182 177 127 178 247 123 112 117 201 118 159 186 159 167 166 136 158 208 173 121 122 131 144 147 131 106 64 212 206 268 285 355 23 340 316 328 350 17
148 144 150 157 154 154 194 206 108 194 108 196 185 168 158 172 121 172 181 139 159 153 184 184 149 144 133 146 141 149 172 168 148 140 87 280 244 198 88 84 63 39 37 49 44
147 146 158 158 150 165 204 193 152 287 103 221 210 198 124 152 100 322 236 123 151 174 148 151 122 153 146 170 173 176 176 136 133 168 177 314 239 152 102 81 64 65 68 78 83
103 160 168 160 138 174 146 154 129 53 169 171 161 58 90 157 117 191 307 88 164 149 182 138 157 154 173 185 186 131 139 120 119 98 183 194 249 132 160 129 89 85 89 90 86
61 102 160 124 181 134 137 124 143 164 223 161 146 160 137 82 85 108 150 73 120 92 45 93 24 148 117 69 6 142 109 76 79 106 226 172 250 181 180 163 144 125 107 100 92
9 121 150 133 171 157 152 146 157 200 150 172 176 159 173 150 132 186 180 167 161 142 176 99 125 106 152 97 139 176 157 127 174 195 235 32 210 339 147 132 151 140 123 107 102
346 131 118 64 131 147 162 171 213 158 184 118 137 149 175 156 150 145 171 183 225 104 143 168 191 180 167 164 179 183 197 173 180 189 160 88 222 215 154 124 141 132 123 121 104
304 62 138 26 358 178 167 202 199 182 133 135 134 157 168 196 145 166 196 196 187 193 162 164 168 67 102 126 174 170 209 83 105 31 167 192 226 230 163 167 163 151 147 134 119
267 111 56 341 355 170 194 202 193 160 124 154 153 187 185 183 165 188 175 190 185 198 245 180 135 10 89 122 59 213 143 145 124 160 213 196 252 205 181 181 174 165 157 140 129
0 85 349 345 227 187 204 193 156 210 154 170 150 145 188 174 187 197 184 134 188 177 184 144 106 111 141 217 179 147 182 92 121 198 187 181 227 221 187 180 174 166 158 150 142
90 146 48 303 183 197 209 191 131 169 212 170 122 110 164 166 170 185 194 236 163 156 177 186 108 147 196 12 337 330 176 179 188 198 259 0 246 317 186 172 166 161 160 152 146
93 103 327 25 165 207 204 182 172 168 190 167 127 158 149 156 151 198 170 105 160 173 170 184 161 115 117 275 326 227 190 197 112 60 192 171 221 48 156 160 165 163 163 159 152
131 143 121 104 159 160 164 188 191 261 147 123 123 98 127 150 22 173 138 150 159 180 84 123 145 198 199 205 134 198 190 199 189 200 195 235 171 174 174 171 172 171 165 161 158
20 85 350 165 203 144 355 165 189 185 205 179 123 211 155 135 142 147 147 134 95 136 113 192 191 191 101 100 182 206 183 183 197 219 208 237 218 186 187 186 181 165 161 158 157
134 150 127 87 266 160 197 214 186 204 177 202 207 180 169 161 194 178 150 174 175 148 161 164 140 114 166 72 48 211 208 198 209 216 231 233 235 195 188 168 166 173 170 169 165
149 125 175 109 193 173 180 165 227 154 347 282 190 164 197 138 104 88 89 106 143 151 161 156 134 139 212 140 20 281 221 203 217 217 220 226 227 173 174 190 184 178 176 170 164